Location: PSU-Greenbush Astrophysical Observatory
(37.5140°N, 94.9880°W)
Time: 19:33:37
(UTC-06:00)

Transit 2A - Pass Details

Date: 25 January 2020
Orbit: 599 x 959 km, 66.7° (Epoch: 25 February)

Event Time Altitude Azimuth Distance (km) Brightness Sun altitude
Rises 18:30:19 0° 163° (SSE) 2,944 9.0 -11.0°
Reaches altitude 10° 18:33:41 10° 137° (SE) 1,989 7.9 -11.6°
Maximum altitude 18:35:54 14° 107° (ESE) 1,736 7.3 -12.1°
Enters shadow 18:36:02 14° 105° (ESE) 1,736 7.3 -12.1°
Drops below altitude 10° 18:38:04 10° 76° (ENE) 1,952 - -12.5°
Sets 18:41:18 0° 50° (NE) 2,848 - -13.1°
